This is the latest recevied weather packets stored in our database for station/object DG1ABU-11. If no packets are shown the sender has not sent any weather packets the latest 10 day(s).
| Time | Temp. | Humidity | Pressure | Rain* | Wind** | Luminosity | Snow |
|---|---|---|---|---|---|---|---|
| 1777496521 | 11.67° C | 31% | 1031.2 hPa | - | - | - | - |
| 1777495621 | 12.22° C | 31% | 1031.2 hPa | - | - | - | - |
| 1777494720 | 12.78° C | 30% | 1031.1 hPa | - | - | - | - |
| 1777493820 | 13.33° C | 30% | 1030.8 hPa | - | - | - | - |
| 1777492920 | 13.89° C | 30% | 1030.8 hPa | - | - | - | - |
| 1777492020 | 14.44° C | 29% | 1030.7 hPa | - | - | - | - |
| 1777491120 | 15° C | 29% | 1030.7 hPa | - | - | - | - |
| 1777490220 | 15.56° C | 29% | 1030.5 hPa | - | - | - | - |
| 1777489320 | 16.11° C | 28% | 1030.5 hPa | - | - | - | - |
| 1777488420 | 16.67° C | 27% | 1030.3 hPa | - | - | - | - |
| 1777487520 | 17.22° C | 26% | 1030.4 hPa | - | - | - | - |
| 1777486620 | 17.78° C | 28% | 1030 hPa | - | - | - | - |
| 1777485720 | 18.89° C | 36% | 1030 hPa | - | - | - | - |
| 1777484820 | 18.33° C | 29% | 1029.9 hPa | - | - | - | - |
| 1777483920 | 18.89° C | 22% | 1029.8 hPa | - | - | - | - |
| 1777483020 | 19.44° C | 22% | 1029.7 hPa | - | - | - | - |
| 1777482120 | 20° C | 22% | 1029.5 hPa | - | - | - | - |
| 1777481220 | 20.56° C | 22% | 1029.5 hPa | - | - | - | - |
| 1777480319 | 21.11° C | 22% | 1029.4 hPa | - | - | - | - |
| 1777479419 | 21.11° C | 22% | 1029.5 hPa | - | - | - | - |
| 1777478519 | 21.67° C | 22% | 1029.5 hPa | - | - | - | - |
| 1777477619 | 21.67° C | 21% | 1029.4 hPa | - | - | - | - |
| 1777476719 | 22.22° C | 21% | 1029.4 hPa | - | - | - | - |
| 1777475819 | 22.22° C | 20% | 1029.4 hPa | - | - | - | - |
| 1777474919 | 22.22° C | 20% | 1029.5 hPa | - | - | - | - |
* Rain since midnight (hover to see other rain measurements)
** Current wind speed in m/s (hover to see current wind gust speed)